When you browse on this site, cookies collect data to enhance your experience and personalize the content and advertising you see.
Visit our Privacy Policy to learn more. By continuing to use the site, you agree to this use of cookies and data.
  • In Deutschland
  • Länderverzeichnis
  • Für 7 Tage
  • Wassertemperatur
  • Satellitenkarten
  • Wetterkarte
  • Widgets
  • user-avatar
    Anmelden

    Stündliche Wetter Barisal

    Heute, 19 Juli, Freitag

    Zeit Temperatur Niederschläge Wind Luftdruck Luftfeuchtigkeit
    00:00 +31°C° 0 mm 2 m/S 751 mmHg 82%
    01:00 +31°C° 0 mm 2 m/S 751 mmHg 83%
    02:00 +30°C° 0 mm 2 m/S 750 mmHg 83%
    03:00 +30°C° 0 mm 3 m/S 749 mmHg 84%
    04:00 +30°C° 0.3 mm 3 m/S 750 mmHg 84%
    05:00 +30°C° 0.3 mm 3 m/S 750 mmHg 85%
    06:00 +30°C° 0 mm 2 m/S 751 mmHg 87%
    07:00 +31°C° 0 mm 3 m/S 751 mmHg 81%
    08:00 +33°C° 0 mm 4 m/S 751 mmHg 76%
    09:00 +34°C° 0 mm 4 m/S 751 mmHg 70%
    10:00 +35°C° 0 mm 5 m/S 751 mmHg 67%
    11:00 +36°C° 0 mm 5 m/S 751 mmHg 64%
    12:00 +37°C° 0 mm 5 m/S 752 mmHg 58%
    13:00 +37°C° 0 mm 5 m/S 751 mmHg 58%
    14:00 +37°C° 0 mm 5 m/S 750 mmHg 58%
    15:00 +37°C° 0 mm 5 m/S 750 mmHg 58%
    16:00 +36°C° 0 mm 5 m/S 750 mmHg 61%
    17:00 +35°C° 0 mm 5 m/S 750 mmHg 64%
    18:00 +34°C° 0 mm 5 m/S 750 mmHg 67%
    19:00 +33°C° 0 mm 4 m/S 750 mmHg 71%
    20:00 +33°C° 0 mm 4 m/S 751 mmHg 74%
    21:00 +31°C° 0 mm 3 m/S 751 mmHg 77%
    22:00 +31°C° 0 mm 3 m/S 751 mmHg 79%
    23:00 +31°C° 0 mm 3 m/S 752 mmHg 80%

    Morgen, 20 Juli, Samstag

    Zeit Temperatur Niederschläge Wind Luftdruck Luftfeuchtigkeit
    00:00 +31°C° 0 mm 3 m/S 752 mmHg 81%
    01:00 +30°C° 0 mm 3 m/S 752 mmHg 82%
    02:00 +30°C° 0 mm 2 m/S 751 mmHg 82%
    03:00 +30°C° 0 mm 2 m/S 751 mmHg 83%
    04:00 +30°C° 0 mm 2 m/S 751 mmHg 84%
    05:00 +30°C° 0 mm 2 m/S 752 mmHg 84%
    06:00 +30°C° 0 mm 1 m/S 752 mmHg 85%
    07:00 +31°C° 0.2 mm 2 m/S 752 mmHg 79%
    08:00 +32°C° 0.2 mm 2 m/S 753 mmHg 73%
    09:00 +34°C° 0.2 mm 3 m/S 753 mmHg 67%
    10:00 +35°C° 0.2 mm 3 m/S 753 mmHg 63%
    11:00 +36°C° 0.2 mm 3 m/S 753 mmHg 59%
    12:00 +37°C° 0.2 mm 4 m/S 752 mmHg 55%
    13:00 +37°C° 0 mm 4 m/S 752 mmHg 55%
    14:00 +37°C° 0 mm 5 m/S 751 mmHg 54%
    15:00 +37°C° 0 mm 5 m/S 750 mmHg 53%
    16:00 +36°C° 0 mm 5 m/S 750 mmHg 57%
    17:00 +35°C° 0 mm 5 m/S 750 mmHg 60%
    18:00 +35°C° 0 mm 5 m/S 750 mmHg 63%
    19:00 +34°C° 0 mm 4 m/S 751 mmHg 68%
    20:00 +33°C° 0 mm 4 m/S 751 mmHg 72%
    21:00 +32°C° 0 mm 4 m/S 752 mmHg 77%
    22:00 +31°C° 0 mm 3 m/S 752 mmHg 78%
    23:00 +31°C° 0 mm 3 m/S 752 mmHg 80%

    übermorgen, 21 Juli, Sonntag

    Zeit Temperatur Niederschläge Wind Luftdruck Luftfeuchtigkeit
    00:00 +31°C° 0 mm 3 m/S 752 mmHg 81%
    01:00 +31°C° 0 mm 2 m/S 752 mmHg 82%
    02:00 +30°C° 0 mm 2 m/S 752 mmHg 83%
    03:00 +30°C° 0 mm 2 m/S 751 mmHg 84%
    04:00 +30°C° 0 mm 2 m/S 752 mmHg 85%
    05:00 +30°C° 0 mm 2 m/S 752 mmHg 85%
    06:00 +30°C° 0 mm 2 m/S 752 mmHg 85%
    07:00 +31°C° 0 mm 2 m/S 752 mmHg 78%
    08:00 +34°C° 0 mm 3 m/S 752 mmHg 70%
    09:00 +35°C° 0 mm 3 m/S 752 mmHg 62%
    10:00 +36°C° 0 mm 3 m/S 752 mmHg 59%
    11:00 +37°C° 0 mm 4 m/S 752 mmHg 55%
    12:00 +38°C° 0 mm 4 m/S 752 mmHg 52%
    13:00 +38°C° 0.1 mm 4 m/S 751 mmHg 53%
    14:00 +39°C° 0.1 mm 5 m/S 751 mmHg 53%
    15:00 +37°C° 0.1 mm 5 m/S 750 mmHg 54%
    16:00 +37°C° 0 mm 5 m/S 750 mmHg 57%
    17:00 +36°C° 0 mm 5 m/S 750 mmHg 59%
    18:00 +35°C° 0 mm 5 m/S 750 mmHg 62%
    19:00 +34°C° 0 mm 5 m/S 750 mmHg 67%
    20:00 +34°C° 0 mm 4 m/S 751 mmHg 71%
    21:00 +33°C° 0 mm 4 m/S 752 mmHg 75%
    22:00 +33°C° 0 mm 4 m/S 752 mmHg 77%
    23:00 +32°C° 0 mm 4 m/S 752 mmHg 78%

    22 Juli, Montag

    Zeit Temperatur Niederschläge Wind Luftdruck Luftfeuchtigkeit
    00:00 +32°C° 0 mm 4 m/S 752 mmHg 79%
    01:00 +32°C° 0 mm 4 m/S 751 mmHg 80%
    02:00 +32°C° 0 mm 4 m/S 751 mmHg 81%
    03:00 +32°C° 0 mm 4 m/S 751 mmHg 82%
    04:00 +32°C° 0 mm 4 m/S 751 mmHg 82%
    05:00 +30°C° 0 mm 4 m/S 751 mmHg 82%
    06:00 +30°C° 0 mm 3 m/S 751 mmHg 83%
    07:00 +32°C° 0 mm 4 m/S 751 mmHg 78%
    08:00 +33°C° 0 mm 5 m/S 752 mmHg 73%
    09:00 +34°C° 0 mm 5 m/S 752 mmHg 68%
    10:00 +35°C° 0.1 mm 6 m/S 752 mmHg 64%
    11:00 +36°C° 0.1 mm 6 m/S 752 mmHg 60%
    12:00 +38°C° 0.1 mm 6 m/S 752 mmHg 56%
    13:00 +38°C° 0.1 mm 6 m/S 751 mmHg 55%
    14:00 +38°C° 0.1 mm 6 m/S 750 mmHg 54%
    15:00 +38°C° 0.1 mm 6 m/S 750 mmHg 53%
    16:00 +36°C° 0 mm 6 m/S 750 mmHg 57%
    17:00 +35°C° 0 mm 5 m/S 750 mmHg 60%
    18:00 +34°C° 0 mm 4 m/S 750 mmHg 63%
    19:00 +34°C° 0 mm 5 m/S 750 mmHg 68%
    20:00 +33°C° 0 mm 5 m/S 751 mmHg 72%
    21:00 +32°C° 0 mm 5 m/S 751 mmHg 76%
    22:00 +32°C° 0 mm 4 m/S 751 mmHg 77%
    23:00 +31°C° 0 mm 3 m/S 751 mmHg 77%

    23 Juli, Dienstag

    Zeit Temperatur Niederschläge Wind Luftdruck Luftfeuchtigkeit
    00:00 +31°C° 0 mm 3 m/S 751 mmHg 78%
    01:00 +31°C° 0.2 mm 3 m/S 750 mmHg 79%
    02:00 +30°C° 0.2 mm 3 m/S 750 mmHg 80%
    03:00 +30°C° 0.2 mm 3 m/S 750 mmHg 81%
    04:00 +30°C° 0.1 mm 3 m/S 750 mmHg 81%
    05:00 +30°C° 0.1 mm 4 m/S 750 mmHg 81%
    06:00 +30°C° 0.1 mm 4 m/S 750 mmHg 81%
    07:00 +32°C° 1.1 mm 4 m/S 750 mmHg 77%
    08:00 +33°C° 1.1 mm 5 m/S 751 mmHg 72%
    09:00 +34°C° 1.1 mm 5 m/S 751 mmHg 68%
    10:00 +34°C° 0.7 mm 5 m/S 751 mmHg 67%
    11:00 +34°C° 0.7 mm 5 m/S 751 mmHg 67%
    12:00 +34°C° 0.7 mm 5 m/S 750 mmHg 66%
    13:00 +34°C° 0.3 mm 5 m/S 750 mmHg 67%
    14:00 +34°C° 0.3 mm 5 m/S 749 mmHg 68%
    15:00 +34°C° 0.3 mm 5 m/S 749 mmHg 70%
    16:00 +33°C° 0.1 mm 5 m/S 749 mmHg 72%
    17:00 +33°C° 0.1 mm 5 m/S 749 mmHg 73%
    18:00 +33°C° 0.1 mm 5 m/S 749 mmHg 75%
    19:00 +32°C° 0.2 mm 4 m/S 749 mmHg 77%
    20:00 +32°C° 0.2 mm 4 m/S 750 mmHg 79%
    21:00 +30°C° 0.2 mm 4 m/S 750 mmHg 81%
    22:00 +30°C° 0.1 mm 4 m/S 750 mmHg 81%
    23:00 +30°C° 0.1 mm 3 m/S 750 mmHg 82%

    24 Juli, Mittwoch

    Zeit Temperatur Niederschläge Wind Luftdruck Luftfeuchtigkeit
    00:00 +30°C° 0.1 mm 3 m/S 750 mmHg 82%
    01:00 +30°C° 0.1 mm 3 m/S 750 mmHg 83%
    02:00 +30°C° 0.1 mm 3 m/S 749 mmHg 84%
    03:00 +30°C° 0.1 mm 3 m/S 749 mmHg 85%
    04:00 +30°C° 0.8 mm 3 m/S 749 mmHg 85%
    05:00 +30°C° 0.8 mm 3 m/S 749 mmHg 85%
    06:00 +30°C° 0.8 mm 3 m/S 749 mmHg 85%
    07:00 +30°C° 0.6 mm 3 m/S 750 mmHg 81%
    08:00 +31°C° 0.6 mm 3 m/S 750 mmHg 77%
    09:00 +33°C° 0.6 mm 3 m/S 750 mmHg 74%
    10:00 +33°C° 1.1 mm 3 m/S 750 mmHg 72%
    11:00 +33°C° 1.1 mm 3 m/S 750 mmHg 70%
    12:00 +34°C° 1.1 mm 3 m/S 750 mmHg 68%
    13:00 +34°C° 1 mm 4 m/S 749 mmHg 68%
    14:00 +34°C° 1 mm 4 m/S 749 mmHg 68%
    15:00 +34°C° 1 mm 4 m/S 748 mmHg 67%
    16:00 +34°C° 0.7 mm 4 m/S 748 mmHg 70%
    17:00 +33°C° 0.7 mm 4 m/S 748 mmHg 72%
    18:00 +32°C° 0.7 mm 4 m/S 748 mmHg 74%
    19:00 +32°C° 0.6 mm 4 m/S 749 mmHg 77%
    20:00 +30°C° 0.6 mm 4 m/S 749 mmHg 79%
    21:00 +30°C° 0.6 mm 3 m/S 750 mmHg 81%
    22:00 +30°C° 1 mm 4 m/S 750 mmHg 82%
    23:00 +30°C° 1 mm 4 m/S 750 mmHg 83%
    Mehr zeigen